Weather reports worldwide

Advertisment
UFS Deutsche Bucht, Germany (10007): temperature & dewpoint: 15.06.2018 23:00:00 - 21.06.2018 23:00:00 (CEST)UFS Deutsche Bucht, Germany (10007): wind speed & gusts: 15.06.2018 23:00:00 - 21.06.2018 23:00:00 (CEST)UFS Deutsche Bucht, Germany (10007): wind direction: 15.06.2018 23:00:00 - 21.06.2018 23:00:00 (CEST)UFS Deutsche Bucht, Germany (10007): reduced air pressure: 15.06.2018 23:00:00 - 21.06.2018 23:00:00 (CEST)UFS Deutsche Bucht, Germany (10007): visibility: 15.06.2018 23:00:00 - 21.06.2018 23:00:00 (CEST)UFS Deutsche Bucht, Germany (10007): sunshine duration: 15.06.2018 23:00:00 - 21.06.2018 23:00:00 (CEST)
Date & Time tt [°C] td [°C] ff [km/h] ff [kn] fx [km/h] fx [kn] dd ppp [hPa] vv [km] sd [min]
21.06.2018 23:00:00 12,3 9,0 50 27 - - WNW 1016,3 10 0
21.06.2018 22:00:00 11,5 8,9 50 27 72 39 WNW 1016,7 3,1 0
21.06.2018 21:00:00 12,6 9,0 50 27 65 35 WNW 1016,7 10 24
21.06.2018 20:00:00 13,0 7,5 47 25 - - WNW 1017,0 9 24
21.06.2018 19:00:00 13,1 7,1 54 29 68 37 WNW 1017,1 8 54
21.06.2018 18:00:00 13,3 7,9 54 29 65 35 WNW 1016,7 1,2 36
21.06.2018 17:00:00 13,3 7,8 54 29 - - NW 1016,4 2,6 54
21.06.2018 16:00:00 13,3 8,9 50 27 65 35 NW 1015,8 0,9 36
21.06.2018 15:00:00 11,8 8,4 47 25 72 39 NW 1015,0 3,2 24
21.06.2018 14:00:00 12,1 7,2 47 25 - - WNW 1014,1 10 12
21.06.2018 13:00:00 11,6 7,3 36 19 61 33 NW 1013,6 7 0
21.06.2018 12:00:00 12,4 8,1 47 25 58 31 WNW 1012,8 10 42
21.06.2018 11:00:00 12,5 8,7 43 23 - - WNW 1011,7 10 12
21.06.2018 10:00:00 11,3 9,6 47 25 68 37 WNW 1011,7 3,7 12
21.06.2018 09:00:00 13,6 9,6 32 18 - - W 1011,5 10 12
21.06.2018 08:00:00 13,6 9,9 32 18 - - WNW 1011,8 10 0
21.06.2018 07:00:00 13,6 9,2 32 18 - - WNW 1012,1 10 0
21.06.2018 06:00:00 13,8 9,8 32 18 - - WNW 1012,3 10 0
21.06.2018 05:00:00 13,9 9,9 29 16 - - WNW 1012,7 10 0
21.06.2018 04:00:00 14,3 10,6 29 16 - - WNW 1013,4 10 0
21.06.2018 03:00:00 14,3 11,8 22 12 - - WNW 1013,5 10 0
21.06.2018 02:00:00 14,6 12,4 29 16 - - NW 1014,0 10 0
21.06.2018 01:00:00 15,4 14,6 29 16 47 25 W 1014,4 10 0
21.06.2018 00:00:00 15,4 14,7 29 16 - - W 1014,7 9 0
20.06.2018 23:00:00 15,6 14,9 25 14 - - WSW 1014,9 7 0
20.06.2018 22:00:00 15,8 14,9 29 16 - - WSW 1015,1 10 0
20.06.2018 21:00:00 15,6 14,8 32 18 - - WSW 1015,3 10 0
20.06.2018 20:00:00 15,3 14,4 36 19 - - WSW 1015,5 10 0
20.06.2018 19:00:00 15,6 14,5 40 21 50 27 WSW 1015,9 10 36
20.06.2018 18:00:00 16,0 15,0 40 21 50 27 WSW 1016,4 10 12
20.06.2018 17:00:00 16,4 15,5 36 19 - - WSW 1016,8 5 24
20.06.2018 16:00:00 16,4 15,1 25 14 - - WSW 1017,1 7 48
20.06.2018 15:00:00 15,9 15,0 22 12 - - WSW 1017,4 6 36
20.06.2018 14:00:00 16,0 15,2 29 16 - - WSW 1017,7 5 60
20.06.2018 13:00:00 16,1 15,1 25 14 - - SW 1018,1 6 60
20.06.2018 12:00:00 16,0 15,3 29 16 - - SW 1018,8 4,4 48
20.06.2018 11:00:00 16,0 15,2 32 18 - - SW 1018,8 4,7 12
20.06.2018 10:00:00 15,8 14,9 36 19 - - SW 1018,8 5 60
20.06.2018 09:00:00 15,4 14,6 32 18 - - SSW 1018,8 1,9 60
20.06.2018 08:00:00 15,6 14,7 32 18 - - SSW 1018,9 7 54
20.06.2018 07:00:00 15,7 14,7 29 16 - - SSW 1019,1 7 30
20.06.2018 06:00:00 15,8 14,6 32 18 - - SSW 1019,3 9 0
20.06.2018 05:00:00 15,6 14,5 29 16 - - SSW 1019,7 10 0
20.06.2018 04:00:00 15,6 13,7 25 14 - - S 1020,2 10 0
20.06.2018 03:00:00 15,5 13,6 22 12 - - S 1020,8 10 0
20.06.2018 02:00:00 15,2 12,6 18 10 - - S 1021,6 10 0
20.06.2018 01:00:00 15,1 12,1 11 6 - - S 1022,2 10 0
20.06.2018 00:00:00 14,8 12,2 11 6 - - SSW 1022,5 10 0
19.06.2018 23:00:00 14,8 12,0 14 8 - - W 1023,0 10 0
19.06.2018 22:00:00 14,8 11,4 18 10 - - W 1022,8 10 42
19.06.2018 21:00:00 15,0 10,2 22 12 - - W 1022,6 0,4 60
19.06.2018 20:00:00 15,1 10,0 22 12 - - W 1022,6 10 60
19.06.2018 19:00:00 15,1 10,1 25 14 - - W 1022,6 10 60
19.06.2018 18:00:00 15,2 9,8 25 14 - - W 1022,5 10 60
19.06.2018 17:00:00 15,2 10,1 25 14 - - W 1022,3 10 60
19.06.2018 16:00:00 15,3 10,3 18 10 - - W 1022,1 10 60
19.06.2018 15:00:00 15,3 10,3 18 10 - - W 1022,0 10 60
19.06.2018 14:00:00 15,3 9,7 25 14 - - W 1021,7 10 60
19.06.2018 13:00:00 15,3 11,3 18 10 - - W 1021,3 10 60
19.06.2018 12:00:00 15,3 11,5 18 10 - - WNW 1020,6 10 54
19.06.2018 11:00:00 15,5 13,6 22 12 - - WNW 1020,1 10 30
19.06.2018 10:00:00 16,0 14,5 14 8 - - W 1019,4 10 12
19.06.2018 09:00:00 15,4 14,5 29 16 - - W 1018,5 10 12
19.06.2018 08:00:00 15,2 14,4 25 14 - - WSW 1017,7 10 0
19.06.2018 07:00:00 15,3 14,1 22 12 - - WSW 1017,1 10 0
19.06.2018 06:00:00 15,3 14,2 29 16 - - WSW 1016,5 10 0
19.06.2018 05:00:00 15,2 14,0 32 18 - - SW 1016,3 10 0
19.06.2018 04:00:00 15,3 13,9 32 18 - - SW 1016,1 10 0
19.06.2018 03:00:00 15,3 13,8 32 18 - - SW 1016,4 10 0
19.06.2018 02:00:00 15,3 14,2 25 14 - - SW 1016,7 10 0
19.06.2018 01:00:00 15,2 14,2 25 14 - - SW 1017,0 10 0
19.06.2018 00:00:00 15,4 13,7 25 14 - - SW 1017,3 10 0
18.06.2018 23:00:00 15,1 14,0 25 14 - - WSW 1017,7 10 0
18.06.2018 22:00:00 15,1 14,1 25 14 - - WSW 1017,2 10 24
18.06.2018 21:00:00 15,0 14,1 18 10 - - SW 1017,0 10 30
18.06.2018 20:00:00 15,0 14,2 14 8 - - WSW 1017,0 10 0
18.06.2018 19:00:00 15,0 14,0 14 8 - - WSW 1017,0 10 0
18.06.2018 18:00:00 15,1 14,1 18 10 - - WSW 1016,7 10 0
18.06.2018 17:00:00 15,1 14,0 18 10 - - WSW 1017,0 10 30
18.06.2018 16:00:00 15,1 14,0 22 12 - - WSW 1017,0 10 30
18.06.2018 15:00:00 15,2 14,2 25 14 - - WSW 1016,9 10 42
18.06.2018 14:00:00 14,8 14,7 25 14 - - SW 1016,6 7 0
18.06.2018 13:00:00 14,9 14,4 32 18 - - SSW 1016,6 5 6
18.06.2018 12:00:00 14,8 13,7 29 16 - - SSW 1016,5 8 6
18.06.2018 11:00:00 14,4 13,6 29 16 - - SSW 1016,7 9 0
18.06.2018 10:00:00 14,3 13,4 29 16 - - S 1016,7 9 0
18.06.2018 09:00:00 14,6 13,2 32 18 - - SSW 1016,5 10 0
18.06.2018 08:00:00 14,6 12,9 29 16 - - SSW 1016,4 10 0
18.06.2018 07:00:00 14,8 13,0 29 16 - - SSW 1016,2 10 0
18.06.2018 06:00:00 14,8 13,0 32 18 - - SSW 1016,5 10 0
18.06.2018 05:00:00 15,0 13,0 25 14 - - SSW 1016,3 10 0
18.06.2018 04:00:00 15,0 12,8 25 14 - - SSW 1016,6 10 0
18.06.2018 03:00:00 14,7 13,2 18 10 - - SSW 1016,6 10 0
18.06.2018 02:00:00 14,8 13,0 22 12 - - SW 1017,3 10 0
18.06.2018 01:00:00 14,7 12,8 18 10 - - SW 1017,3 10 0
18.06.2018 00:00:00 14,5 12,3 18 10 - - SW 1017,2 10 0
17.06.2018 23:00:00 14,6 12,1 22 12 - - WSW 1017,2 10 0
17.06.2018 22:00:00 14,6 12,1 25 14 - - WSW 1017,0 10 18
17.06.2018 21:00:00 14,7 12,2 22 12 - - W 1016,9 10 12
17.06.2018 20:00:00 14,7 11,8 25 14 - - W 1016,7 10 54
17.06.2018 19:00:00 14,8 12,4 25 14 - - W 1016,4 10 42
17.06.2018 18:00:00 14,8 12,3 25 14 - - WSW 1016,0 10 54
17.06.2018 17:00:00 15,0 11,8 25 14 - - W 1015,8 10 60
17.06.2018 16:00:00 15,2 11,2 22 12 - - WSW 1015,4 10 60
17.06.2018 15:00:00 14,9 12,1 22 12 - - WSW 1015,0 10 54
17.06.2018 14:00:00 14,8 12,0 25 14 - - W 1014,6 10 48
17.06.2018 13:00:00 14,7 12,1 25 14 - - W 1014,2 10 12
17.06.2018 12:00:00 14,6 12,3 25 14 - - WSW 1013,9 10 12
17.06.2018 11:00:00 14,6 12,4 25 14 - - W 1013,4 10 18
17.06.2018 10:00:00 14,8 13,2 22 12 - - WSW 1013,1 5 60
17.06.2018 09:00:00 14,7 13,3 32 18 - - SW 1012,3 10 12
17.06.2018 08:00:00 14,7 13,0 36 19 - - SSW 1011,9 10 12
17.06.2018 07:00:00 14,7 13,1 32 18 - - SSW 1011,9 9 24
17.06.2018 06:00:00 14,7 12,6 32 18 - - SSW 1012,0 10 12
17.06.2018 05:00:00 14,8 12,5 29 16 - - SSW 1012,2 10 0
17.06.2018 04:00:00 14,9 12,4 25 14 - - SW 1012,3 10 0
17.06.2018 03:00:00 15,2 12,8 22 12 - - SSW 1012,5 10 0
17.06.2018 02:00:00 14,8 13,6 14 8 - - SSW 1012,8 10 0
17.06.2018 01:00:00 14,7 13,9 22 12 - - SSW 1013,1 8 0
17.06.2018 00:00:00 14,7 13,9 18 10 - - SSW 1013,0 9 0
16.06.2018 23:00:00 14,9 13,7 18 10 - - SSW 1013,3 10 0
16.06.2018 22:00:00 15,0 13,5 14 8 - - S 1013,3 10 0
16.06.2018 21:00:00 15,5 13,0 14 8 - - WSW 1013,2 10 12
16.06.2018 20:00:00 15,7 13,3 14 8 - - W 1013,4 10 0
16.06.2018 19:00:00 15,8 13,0 7 4 - - WSW 1013,4 10 6
16.06.2018 18:00:00 16,4 14,1 11 6 - - W 1013,2 9 36
16.06.2018 17:00:00 16,2 13,5 11 6 - - W 1013,1 10 12
16.06.2018 16:00:00 16,0 13,4 14 8 - - WSW 1013,2 10 6
16.06.2018 15:00:00 16,3 13,3 11 6 - - W 1013,0 10 6
16.06.2018 14:00:00 15,7 13,7 11 6 - - SSW 1013,7 10 6
16.06.2018 13:00:00 15,6 13,7 7 4 - - S 1013,9 10 12
16.06.2018 12:00:00 15,8 14,3 4 2 - - ESE 1014,0 10 0
16.06.2018 11:00:00 15,7 13,8 4 2 - - SE 1014,2 10 0
16.06.2018 10:00:00 15,6 13,7 4 2 - - SE 1014,3 10 0
16.06.2018 09:00:00 15,9 12,9 14 8 - - SE 1014,3 10 0
16.06.2018 08:00:00 16,2 12,5 14 8 - - SE 1014,4 10 0
16.06.2018 07:00:00 15,9 13,1 11 6 - - E 1014,7 10 0
16.06.2018 06:00:00 15,8 13,3 11 6 - - ENE 1014,9 10 0
16.06.2018 05:00:00 15,8 13,0 14 8 - - NE 1015,2 10 0
16.06.2018 04:00:00 15,9 12,8 14 8 - - ENE 1015,6 10 0
16.06.2018 03:00:00 15,9 12,7 18 10 - - E 1015,8 10 0
16.06.2018 02:00:00 16,1 11,6 14 8 - - ENE 1016,2 10 0
16.06.2018 01:00:00 15,8 11,7 14 8 - - E 1016,4 10 0
16.06.2018 00:00:00 15,8 12,5 11 6 - - E 1016,7 10 0
15.06.2018 23:00:00 15,7 12,8 11 6 - - E 1016,8 10 0

tt = temperature
td = dewpoint
ff = wind speed
fx = gusts
dd = wind direction
ppp = reduced air pressure
vv = visibility
sd = sunshine duration

Next stations